TimeCST,TemperatureF,Dew PointF,Humidity,Sea Level PressureIn,VisibilityMPH,Wind Direction,Wind SpeedMPH,Gust SpeedMPH,PrecipitationIn,Events,Conditions,WindDirDegrees,DateUTC
12:53 AM,32.0,30.0,92,30.36,10.0,Calm,Calm,-,N/A,,Clear,0,2013-01-07 06:53:00
1:53 AM,30.9,28.0,89,30.36,10.0,Calm,Calm,-,N/A,,Clear,0,2013-01-07 07:53:00
2:53 AM,32.0,28.9,88,30.36,10.0,NE,3.5,-,N/A,,Clear,40,2013-01-07 08:53:00
3:53 AM,30.0,28.0,92,30.35,7.0,Calm,Calm,-,N/A,,Clear,0,2013-01-07 09:53:00
4:53 AM,28.0,26.1,92,30.35,7.0,NE,3.5,-,N/A,,Clear,40,2013-01-07 10:53:00
5:53 AM,30.0,27.0,88,30.36,6.0,Calm,Calm,-,N/A,,Clear,0,2013-01-07 11:53:00
6:53 AM,30.9,28.0,89,30.36,10.0,NE,5.8,-,N/A,,Clear,50,2013-01-07 12:53:00
7:53 AM,30.0,27.0,88,30.39,6.0,Calm,Calm,-,N/A,,Clear,0,2013-01-07 13:53:00
8:53 AM,36.0,30.0,79,30.43,10.0,Calm,Calm,-,N/A,,Clear,0,2013-01-07 14:53:00
9:53 AM,39.0,30.0,70,30.42,10.0,ENE,5.8,-,N/A,,Clear,60,2013-01-07 15:53:00
10:53 AM,43.0,30.0,60,30.40,10.0,ESE,5.8,-,N/A,,Clear,120,2013-01-07 16:53:00
11:53 AM,46.9,30.9,54,30.35,10.0,East,5.8,-,N/A,,Clear,80,2013-01-07 17:53:00
12:53 PM,48.2,28.4,46,30.31,10.0,Calm,Calm,-,N/A,,Clear,0,2013-01-07 18:53:00
1:53 PM,52.0,30.0,43,30.28,10.0,ENE,4.6,-,N/A,,Clear,60,2013-01-07 19:53:00
2:53 PM,53.1,30.0,41,30.26,10.0,NE,5.8,-,N/A,,Clear,50,2013-01-07 20:53:00
3:53 PM,52.0,30.0,43,30.25,10.0,Calm,Calm,-,N/A,,Clear,0,2013-01-07 21:53:00
4:53 PM,48.0,34.0,58,30.24,10.0,Calm,Calm,-,N/A,,Clear,0,2013-01-07 22:53:00
5:53 PM,42.1,35.1,76,30.22,10.0,ENE,3.5,-,N/A,,Clear,60,2013-01-07 23:53:00
6:53 PM,39.0,34.0,82,30.23,10.0,Calm,Calm,-,N/A,,Clear,0,2013-01-08 00:53:00
7:53 PM,37.0,33.1,86,30.23,10.0,Calm,Calm,-,N/A,,Clear,0,2013-01-08 01:53:00
8:53 PM,37.0,33.1,86,30.22,10.0,Calm,Calm,-,N/A,,Clear,0,2013-01-08 02:53:00
9:53 PM,37.0,33.1,86,30.22,10.0,Calm,Calm,-,N/A,,Clear,0,2013-01-08 03:53:00
10:53 PM,35.1,32.0,89,30.22,10.0,Calm,Calm,-,N/A,,Clear,0,2013-01-08 04:53:00
11:53 PM,37.0,34.0,89,30.21,10.0,Calm,Calm,-,N/A,,Clear,0,2013-01-08 05:53:00